Location: Bald Rock
(37.3738°N, 119.9354°W)
Time: 21:58:51
(UTC+00:00)

Cosmos 2360 Rocket - Pass Details

Date: 08 September 2024
Orbit: 835 x 842 km, 71.0° (Epoch: 12 October)

Event Time Altitude Azimuth Distance (km) Brightness Sun altitude
Rises 12:27:06 0° 337° (NNW) 3,389 5.3 -14.3°
Reaches altitude 10° 12:29:33 10° 338° (NNW) 2,451 4.6 -13.8°
Maximum altitude 12:35:11 90° 69° (ENE) 839 2.2 -12.7°
Drops below altitude 10° 12:40:47 10° 160° (SSE) 2,436 4.7 -11.7°
Sets 12:43:13 0° 160° (SSE) 3,367 5.4 -11.2°
